Printer-friendly version

IAU Minor Planet Center

Minor Planet Center

MPEC 2003-U100: 2002 EQ9

The following Minor Planet Electronic Circular may be linked-to from your own Web pages, but must not otherwise be redistributed electronically.


Read MPEC 2003-U99 Read MPEC 2003-U101


M.P.E.C. 2003-U100                               Issued 2003 Oct. 31, 12:12 UT

     The Minor Planet Electronic Circulars contain information on unusual
         minor planets and routine data on comets.  They are published
   on behalf of Commission 20 of the International Astronomical Union by the
          Minor Planet Center, Smithsonian Astrophysical Observatory,
                          Cambridge, MA 02138, U.S.A.

         Supported in part by the Steven and Michele Kirsch Foundation
             Prepared using the Tamkin Foundation Computer Network

                              MPC@CFA.HARVARD.EDU
          URL http://cfa-www.harvard.edu/iau/mpc.html  ISSN 1523-6714

                                   2002 EQ9

                           Revision to MPEC 2002-E56

Additional Observations:
     K02E09Q 2C2003 10 25.55731504 51 00.602+02 00 17.38         23.3 R      568
     K02E09Q 2C2003 10 25.56314404 51 00.370+02 00 14.03         23.2 R      568
     K02E09Q 2C2003 10 29.53036304 48 20.875+01 21 48.26         23.1 R      568
     K02E09Q 2C2003 10 29.53790204 48 20.519+01 21 43.82                     568

Observer details:
568 Mauna Kea.  Observers D. J. Tholen, F. Bernardi.  2.2-m University of
    Hawaii reflector + CCD.

First and last observations above in comparison with prediction:
Residuals in seconds of arc, reference and Delta-T
031025 568 12.7+  1.3+    031029 568 12.8+  1.3+    MPO 33969   -0.018 day

Orbital elements:
2002 EQ9
Epoch 2003 Dec. 27.0 TT = JDT 2453000.5                 MPC
M 239.78736              (2000.0)            P               Q
n   0.39586011     Peri.   44.04022     -0.72718282     +0.68643477
a   1.8369961      Node   179.27969     -0.68144442     -0.72125766
e   0.4644110      Incl.   16.30701     -0.08269613     -0.09270758
P   2.49           H   19.4           G   0.15           U   2
Residuals in seconds of arc
020315 644  0.0   0.2+    020320 367  0.2+  0.1-    020331 198  0.1+  0.3-
020315 644  0.3+  0.4+    020320 367  0.0   0.5+    020331 198  0.1+  0.2+
020315 644  0.2+  0.1+    020320 938  0.4-  1.2+    020401 726  0.9-  1.1-
020315 620  0.0   0.4+    020320 938  0.8-  0.3+    020401 726  1.0-  0.6-
020315 946  0.5-  1.0+    020320 938  0.1-  0.1+    020401 726  0.2+  0.3-
020315 620  1.3-  0.3+    020320 938  0.2-  0.5+    020401 726  0.2+  0.1+
020315 946  0.1-  0.2+    020320 938  0.8-  0.4-    020401 726  0.1+  0.3-
020315 946  0.5+  0.1+    020320 938  0.7-  0.0     020401 726  0.1-  0.4-
020315 620 (2.4-  0.1-)   020320 938  0.5-  1.2+    020401 726  0.1+  0.1-
020315 118  0.0   0.0     020320 938  0.8+  0.3+    020401 726  0.6-  0.6-
020315 118  0.2+  0.1+    020320 938  0.2-  0.2+    020401 726  0.1+  0.5-
020315 118  0.1-  0.3+    020320 938  0.4-  0.3+    020401 726  0.8-  0.1-
020315 118  0.4-  0.1+    020320 938  2.0+  0.1+    020401 379  0.2+  1.6+
020315 213  0.2-  0.2+    020322 157  0.3+  0.1-    020401 379  0.1-  1.2+
020315 962  1.0+  0.1-    020322 157  0.4+  0.1-    020401 379  0.1-  0.3+
020315 962  0.2+  0.4-    020322 157  0.4+  0.3-    020401 379  0.3+  0.5+
020315 962  0.3+  0.7-    020322 157  0.3-  0.6-    020401 587  0.3-  0.1+
020315 213  1.6+  1.0+    020322 157  0.3+  0.1-    020401 587  0.0   0.2-
020315 962  0.1-  0.3-    020322 233  0.0   0.2+    020401 587  0.1-  0.5-
020315 962  0.9-  0.2-    020322 233  0.1-  0.7+    020401 587  0.1-  0.2-
020315 213  1.2-  0.8-    020322 233  0.0   0.7+    020401 071 (0.9+  2.7-)
020315 213  0.2+  0.3-    020322 233  0.2-  0.1-    020401 071  0.1-  1.0+
020315 213  0.6-  0.5-    020322 233  0.2-  0.3-    020401 071 (1.9-  2.5-)
020315 174  0.3+  0.6-    020322 233  1.3+  0.1+    020402 704  0.0   0.1+
020315 174  0.9+  0.2-    020322 233  0.9-  0.2-    020402 704  0.0   0.0
020315 174  0.7+  0.0     020322 233  0.1-  0.5-    020402 704  0.2+  0.1-
020316 941  0.2-  0.1+    020322 233  0.2+  0.7-    020402 704  0.2+  0.1-
020316 941  0.5-  0.0     020322 233  1.9+  1.0+    020402 704  0.4+  0.2-
020316 941  0.5+  0.1+    020323 644  0.1+  0.3-    020402 355  0.3+  0.1-
020316 941  1.0+  0.0     020323 644  0.3+  0.3+    020402 355  0.5+  0.8-
020316 941  0.5+  0.0     020323 644  0.1+  0.3+    020402 355  0.5+  0.4+
020316 926  0.2-  0.2-    020324 926 (0.2+  2.6+)   020402 355  0.0   0.1-
020316 926  0.3-  0.1+    020324 926  0.7-  0.9+    020402 379  0.2-  0.2-
020316 926  0.1-  0.4-    020324 926  0.8-  0.3-    020402 379  0.4+  0.1-
020316 926  0.6-  0.2-    020324 926  0.7+  1.1+    020402 379  0.3-  0.1-
020316 428  0.2-  0.2-    020324 203  1.5+  0.1+    020402 071  0.3+  1.0-
020316 428  0.3-  0.1+    020324 203 (2.3+  0.1-)   020402 071  0.5-  1.4-
020316 428  0.2-  0.1-    020324 203  0.5+  0.2+    020402 071  1.5+  1.0-
020316 367  0.5-  0.3+    020325 670  0.4+  0.9+    020402 151  0.2-  0.7+
020316 367  0.5-  0.3-    020325 670  0.6-  0.7+    020402 151  0.6-  0.5+
020316 367  0.1-  0.2+    020325 670  0.8+  0.2+    020402 151  0.4-  0.2-
020316 367  0.1-  0.2+    020325 560  0.0   0.3-    020402 151  0.2-  0.1-
020316 367  0.7-  0.1-    020325 560  0.0   1.0+    020402 151  0.6-  0.0
020316 379  0.0   0.1-    020325 560  0.6+  0.4-    020402 151  0.4-  0.9-
020316 379  0.3+  0.7+    020325 560  0.4+  0.8-    020402 151  0.6-  0.1-
020316 379  0.5-  1.4-    020325 560  0.6-  0.0     020402 151  0.7-  0.4+
020316 157  0.1-  0.2-    020325 560  0.1-  0.6-    020403 151  0.1-  0.2-
020316 157  0.5-  0.2+    020325 560  0.0   1.0-    020403 151  0.4+  0.3-
020316 157  0.1-  0.4+    020326 938  0.1-  0.8-    020403 151  0.3+  0.3-
020316 113  0.1+  0.6+    020326 938  1.2+  0.7+    020403 151  0.1+  0.3-
020316 113  0.3+  0.4+    020326 938  0.1+  0.8+    020403 151  0.7+  0.8-
020316 113  0.1-  0.2+    020326 938 (1.1-  2.0+)   020403 151  0.9+  0.4+
020316 113  0.1-  0.7+    020326 938  0.7-  0.2+    020403 151  0.5-  0.4+
020316 113  0.0   0.5+    020327 926  0.8+  1.0+    020403 151  0.9+  0.1-
020317 704  0.3+  0.5+    020327 926 (1.4+  4.0+)   020403 639  0.2-  0.0
020317 704  0.2+  0.5+    020327 926 (0.6+  4.0+)   020403 639  0.6-  0.3-
020317 704  0.3+  0.4+    020327 113  0.4+  0.2-    020403 639  0.7-  0.3-
020317 704  0.2+  0.1+    020327 113  0.2+  0.2-    020403 639  1.3+  0.1-
020317 704  0.2+  0.3+    020327 113  0.0   0.2-    020403 639  0.9-  0.3-
020317 422  0.0   0.1-    020327 113  0.1+  0.6-    020403 639  0.1-  0.8+
020317 422  0.2-  0.2-    020327 113  0.1+  0.4+    020403 198  0.4-  0.1+
020317 422  0.0   0.1-    020327 113  0.5-  0.3+    020403 198  0.4-  0.6+
020317 367  0.2-  0.3-    020327 113  0.4+  0.1+    020403 198  0.6-  0.3+
020317 367  0.0   0.4-    020327 113  0.1+  0.4+    020403 198  0.4-  0.1-
020317 367  0.1-  0.3-    020327 113  0.3+  0.3-    020403 198  0.5-  0.2-
020317 367  0.2-  0.4-    020327 113  0.2+  0.2+    020404 151 (1.2+  2.7+)
020317 367  0.4-  0.8-    020327 560  0.6+  0.5+    020404 151  0.3-  0.3+
020318 379  0.5-  0.1-    020327 560  0.7+  0.5-    020404 151  0.2-  0.3+
020318 379  0.7-  0.6-    020327 560  0.9+  0.8-    020404 151  0.0   0.5+
020318 379  0.7-  0.9-    020328 540  0.2-  0.1+    020404 151  0.4-  0.2+
020318 379  0.7-  0.2+    020328 540  0.0   0.1-    020404 151  0.2-  0.4+
020318 379  0.8-  0.5-    020328 540  0.0   0.4+    020406 649  0.2-  0.4+
020318 118  0.7+  0.7-    020328 540  0.1+  0.0     020406 649  0.1+  0.6+
020318 118  0.4+  0.8-    020328 540  0.1-  0.3+    020406 649  0.1+  0.6+
020318 118  0.2+  0.6-    020329 649  0.1+  0.7+    020406 215  0.2+  0.7+
020319 379  0.3-  0.4+    020329 649  0.1+  0.2+    020406 215  0.3+  0.6+
020319 379  0.1+  0.8+    020329 649  0.1+  0.1+    020406 215  0.4+  0.5+
020319 379  0.0   0.2-    020329 636 (0.8-  3.2-)   020415 711  0.2+  0.4+
020319 379  0.1-  0.5-    020329 636  0.7+  1.3+    020415 711  0.3+  0.0
020319 379  0.1+  0.2+    020329 636  0.3+  0.9+    020425 649  0.2-  0.4+
020319 300  0.6+  0.5-    020329 203  0.2-  0.2-    020425 649  0.1+  0.1+
020319 300  1.3+  1.0-    020329 203  0.1+  0.4+    020425 649  0.2-  0.1-
020319 300  1.1+  1.1-    020330 203  0.1+  0.2-    020507 696  0.3+  0.4-
020319 300  1.1+  1.3-    020331 379  0.7-  0.6+    020507 696  0.0   0.2+
020319 300  0.4+  0.5-    020331 379  0.5-  0.1+    020526 649  0.6+  0.4-
020319 322  0.5+  0.2-    020331 379  0.8-  0.3+    020526 649  0.4+  0.6-
020319 322  0.0   0.3+    020331 151  0.2-  0.1+    020608 696  0.2+  0.0
020319 322  0.1+  0.1+    020331 151  0.2-  0.2-    020608 696  0.0   0.0
020319 322  0.6+  0.1+    020331 151  0.3-  0.3-    020709 540  1.0-  0.5+
020320 761  0.4-  0.0     020331 151  0.0   0.1-    020709 540  0.6-  0.2-
020320 761  0.3-  0.6+    020331 151  0.2-  0.2-    020805 113  0.1-  0.0
020320 761  0.7-  0.2+    020331 151  0.3-  0.3-    020805 113  0.2-  0.3-
020320 379  0.3+  0.8-    020331 203  0.4-  0.2+    020805 113  0.2+  0.5-
020320 379  0.3-  0.4-    020331 203  0.3-  0.0     020815 671  0.1-  0.3+
020320 379  0.4-  0.7-    020331 560  0.2-  0.8-    020815 671  0.5-  0.2+
020320 379  0.3-  0.8-    020331 560  0.5-  0.4-    031025 568  0.0   0.4+
020320 379  0.5-  0.6-    020331 560  0.4-  0.7-    031025 568  0.1-  0.4+
020320 367  0.1+  0.2+    020331 203  0.1-  0.5+    031029 568  0.0   0.5+
020320 367  0.1-  0.5+    020331 203  0.1+  0.3+    031029 568  0.2-  0.4+
020320 367  0.0   0.3+    020331 198  0.1+  0.2-

Timothy B. Spahr             (C) Copyright 2003 MPC           M.P.E.C. 2003-U100

Read MPEC 2003-U99 Read MPEC 2003-U101


Our Web policy. Index to the CBAT/MPC/ICQ pages.


Valid HTML 4.01!